Regional Weather Roundup
Issued by NWS

Home | Current Version | Previous Version | Graphics & Text | Print | Product List | Glossary On
Versions: 1 2 3 4 5 6 7 8 9 10 11 12 13 14 15 16 17 18 19 20 21 22 23 24 25 26 27 28 29 30 31 32 33 34 35 36 37 38 39 40 41 42 43 44 45 46 47 48 49 50
000
ASUS43 KOAX 250102
RWRNE

WEATHER ROUNDUP FOR NEBRASKA
NATIONAL WEATHER SERVICE OMAHA NE
700 PM CST MON NOV 24 2014

NOTES: SATELLITE DATA IS BEING USED TO AUGMENT CLOUD COVER ABOVE
       12000 FEET.
       "FAIR" INDICATES FEW OR NO CLOUDS BELOW 12,000 FEET WITH NO
       SIGNIFICANT WEATHER AND/OR OBSTRUCTIONS TO VISIBILITY.

  * THESE STATIONS DO NOT REPORT WEATHER SUCH AS RAIN...SNOW OR FOG.

NEZ001>004-019>022-054>056-250200-
NEBRASKA PANHANDLE

CITY           SKY/WX    TMP DP  RH WIND       PRES   REMARKS
SCOTTSBLUFF    FLURRIES  33  24  69 NW17G31   30.13R WCI  22
ALLIANCE       PTCLDY    32  21  64 N15       30.08R WCI  22
CHADRON        CLOUDY    28  26  92 W7        30.11S WCI  21
KIMBALL        CLEAR     29  22  74 NW14      30.10R WCI  18
SIDNEY         PTCLDY    31  18  58 NW14      30.10R WCI  21
$$

NEZ057>060-069>072-079>082-250200-
SOUTHWEST NEBRASKA

CITY           SKY/WX    TMP DP  RH WIND       PRES   REMARKS
NORTH PLATTE   CLOUDY    36  25  64 NW14      30.05R WCI  27
IMPERIAL       MOCLDY    34  28  79 NW12      30.07R WCI  25
LEXINGTON      CLEAR     28  17  62 NW9       30.04R WCI  19
MCCOOK         PTCLDY    38  29  70 NW20G25   30.05R WCI  28
OGALLALA       CLOUDY    38  29  70 N17       30.07R WCI  29
$$

NEZ005>010-023>029-035>040-094-250200-
NORTH CENTRAL NEBRASKA

CITY           SKY/WX    TMP DP  RH WIND       PRES   REMARKS
VALENTINE      CLEAR     23  16  74 W6        30.04R WCI  16
AINSWORTH      CLEAR     24  15  66 NW3       30.03R
BROKEN BOW     PTCLDY    28  16  60 N9        30.02R WCI  19
O`NEILL        CLEAR     24   9  51 NW10      30.03R WCI  14
ORD            PTCLDY    22   7  52 NW8       30.03R WCI  12
THEDFORD       MOCLDY    31  22  69 NW8       30.04R WCI  23
$$

NEZ041-046>049-061>064-073>077-083>087-250200-
SOUTH CENTRAL NEBRASKA

CITY           SKY/WX    TMP DP  RH WIND       PRES   REMARKS
GRAND ISLAND   CLEAR     29  10  45 NW12      30.03R WCI  19
AURORA         PTCLDY    28  13  52 NW9       30.02R WCI  19
HASTINGS       CLEAR     27  16  63 NW7       30.02R WCI  19
HEBRON         CLEAR     31  13  47 NW5       30.03R WCI  26
HOLDREGE       PTCLDY    30  14  51 NW3       30.03R
KEARNEY *      PTCLDY    27  14  59 W7        30.05R WCI  19
YORK           CLEAR     28  14  54 NW10      30.01R WCI  19
$$

NEZ011>018-030>034-042>045-250200-
NORTHEAST NEBRASKA

CITY           SKY/WX    TMP DP  RH WIND       PRES   REMARKS
NORFOLK        CLEAR     27   8  44 NW14      29.99R WCI  16
ALBION         PTCLDY    28   5  39 NW10      30.01R WCI  18
BLAIR          CLEAR     31   9  40 NW15G24   29.95R WCI  20
COLUMBUS *     CLEAR     27   7  43 NW9       30.02R WCI  17
FREMONT        CLEAR     30  11  45 NW15G21   29.99R WCI  19
TEKAMAH        CLEAR     29  15  56 NW18G30   29.97R WCI  16
WAYNE          CLEAR     26   7  44 NW14      29.99R WCI  15
$$

NEZ050>053-065>068-078-088>093-250200-
SOUTHEAST NEBRASKA

CITY           SKY/WX    TMP DP  RH WIND       PRES   REMARKS
LINCOLN        CLEAR     32   6  33 NW12      30.02R WCI  23
OMAHA EPPLEY   CLEAR     30  12  47 NW18      29.97R WCI  18
BEATRICE       CLEAR     23   8  53 NW6       30.01R WCI  16
FALLS CITY     CLEAR     30  15  53 NW12      29.97R WCI  20
NEBRASKA CITY  CLEAR     31  11  43 NW12G18   29.97R WCI  21
PLATTSMOUTH    CLEAR     31  11  44 NW17G24   29.96R WCI  19
$$

NEZ044-045-051>053-067-250200-
OMAHA AREA

CITY           SKY/WX    TMP DP  RH WIND       PRES   REMARKS
OMAHA EPPLEY   CLEAR     30  12  47 NW18      29.97R WCI  18
BLAIR          CLEAR     31   9  40 NW15G24   29.95R WCI  20
FREMONT        CLEAR     30  11  45 NW15G21   29.99R WCI  19
MILLARD        CLEAR     32  11  42 NW15G21   29.97R WCI  22
OFFUTT AFB     CLEAR     31  11  43 NW16G26   29.97R WCI  20
PLATTSMOUTH    CLEAR     31  11  44 NW17G24   29.96R WCI  19
WAHOO          FAIR      29  10  44 NW13G18   29.99R WCI  19
$$


USA.gov is the U.S. government's official web portal to all federal, state and local government web resources and services.